This is the latest recevied weather packets stored in our database for station/object KN6DHD. If no packets are shown the sender has not sent any weather packets the latest 10 day(s).
| Time | Temp. | Humidity | Pressure | Rain* | Wind** | Luminosity | Snow |
|---|---|---|---|---|---|---|---|
| 1778029994 | 18.89° C | 73% | 1015.7 hPa | 0 mm | - | 73 W/m² | - |
| 1778029692 | 18.89° C | 73% | 1015.6 hPa | 0 mm | - | 73 W/m² | - |
| 1778029390 | 18.89° C | 74% | 1015.7 hPa | 0 mm | - | 75 W/m² | - |
| 1778029087 | 18.33° C | 74% | 1015.7 hPa | 0 mm | - | 75 W/m² | - |
| 1778028783 | 18.33° C | 74% | 1015.5 hPa | 0 mm | - | 78 W/m² | - |
| 1778028479 | 18.33° C | 75% | 1015.5 hPa | 0 mm | - | 77 W/m² | - |
| 1778028177 | 18.33° C | 75% | 1015.7 hPa | 0 mm | - | 74 W/m² | - |
| 1778027873 | 18.33° C | 75% | 1015.6 hPa | 0 mm | - | 76 W/m² | - |
| 1778027569 | 18.33° C | 75% | 1015.4 hPa | 0 mm | - | 78 W/m² | - |
| 1778027266 | 18.33° C | 75% | 1015.7 hPa | 0 mm | - | 83 W/m² | - |
| 1778026962 | 18.33° C | 75% | 1015.6 hPa | 0 mm | - | 86 W/m² | - |
| 1778026658 | 18.33° C | 75% | 1015.5 hPa | 0 mm | - | 88 W/m² | - |
| 1778026356 | 18.33° C | 74% | 1015.5 hPa | 0 mm | - | 98 W/m² | - |
| 1778026052 | 18.89° C | 74% | 1015.4 hPa | 0 mm | - | 104 W/m² | - |
| 1778025750 | 18.89° C | 74% | 1015.5 hPa | 0 mm | - | 104 W/m² | - |
| 1778025447 | 18.89° C | 74% | 1015.4 hPa | 0 mm | - | 114 W/m² | - |
| 1778025145 | 18.89° C | 74% | 1015.6 hPa | 0 mm | - | 115 W/m² | - |
| 1778024841 | 18.89° C | 74% | 1015.5 hPa | 0 mm | - | 119 W/m² | - |
| 1778024539 | 18.89° C | 74% | 1015.5 hPa | 0 mm | - | 129 W/m² | - |
| 1778024235 | 18.33° C | 74% | 1015.2 hPa | 0 mm | - | 134 W/m² | - |
| 1778023933 | 18.89° C | 74% | 1015.4 hPa | 0 mm | - | 137 W/m² | - |
| 1778023630 | 18.89° C | 74% | 1015.5 hPa | 0 mm | - | 131 W/m² | - |
| 1778023327 | 18.89° C | 73% | 1015.3 hPa | 0 mm | - | 137 W/m² | - |
| 1778023024 | 18.89° C | 75% | 1015.5 hPa | 0 mm | - | 144 W/m² | - |
| 1778022723 | 18.89° C | 73% | 1015.5 hPa | 0 mm | - | 149 W/m² | - |
* Rain latest hour (hover to see other rain measurements)
** Current wind speed in m/s (hover to see current wind gust speed)